Regional Weather Roundup
Issued by NWS Charleston, SC

Current Version | Previous Version | Graphics & Text | Print | Product List | Glossary On
Versions: 1 2 3 4 5 6 7 8 9 10 11 12 13 14 15 16 17 18 19 20 21 22 23 24 25 26 27 28 29 30 31 32 33 34 35 36 37 38 39 40 41 42 43 44 45 46 47 48 49 50
676
ASUS42 KCHS 291813
RWRCHS

REGIONAL WEATHER ROUNDUP
NATIONAL WEATHER SERVICE CHARLESTON SC
200 PM EDT THU SEP 29 2016

NOTE: "FAIR" INDICATES FEW OR NO CLOUDS BELOW 12,000 FEET WITH NO
SIGNIFICANT WEATHER AND/OR OBSTRUCTIONS TO VISIBILITY.

NOT ALL STATIONS ARE QUALITY CONTROLLED. USE DATA WITH CAUTION...
ESPECIALLY DEWPOINT OBSERVATIONS.

SCZ027-030-031-034>040-042>050-291900-
...SOUTHEAST SOUTH CAROLINA...

CITY           SKY/WX    TMP DP  RH WIND       PRES   REMARKS
N CHARLESTON   PTSUNNY   87  72  60 S13       29.94F HX  93
6HR MIN TEMP:  76; 6HR MAX TEMP:  88;

WATERFRONT PRK   N/A     82  76  82 S14       29.95F
MOUNT PLEASANT MOCLDY    84  75  74 S14G21    29.95F HX  92
JOHNS ISLAND   FAIR      84  75  74 S13       29.97F HX  92
PINOPOLIS        N/A     82  75  78 SW8       29.89F
MONCKS CORNER  FAIR      82  72  69 SW6       29.94F
SUMMERVILLE    FAIR      88  70  55 S5        29.96  HX  92
BEAUFORT MCAS  FAIR      89  68  49 VRB7      29.96F HX  93
6HR MIN TEMP:  75; 6HR MAX TEMP:  90;

BEAUFORT ARPT  FAIR      86  66  51 SW7       29.96F HAZE
HILTON HEAD IS NOT AVBL
WALTERBORO     FAIR      90  63  40 S8        29.96F HX  90
ALLENDALE      FAIR      86  55  35 VRB6      29.95F

...SOUTHERN MIDLANDS AND PEE DEE...

CITY           SKY/WX    TMP DP  RH WIND       PRES   REMARKS
GEORGETOWN     MOCLDY    82  73  74 S15G22    29.96F
KINGSTREE      MOCLDY    86  70  58 SW5       29.94F HX  90
ORANGEBURG     FAIR      86  61  42 SW15      29.95F
6HR MIN TEMP:  72; 6HR MAX TEMP:  86;

BARNWELL       NOT AVBL
AIKEN          FAIR      84  50  30 S6        29.99F
MANNING        FAIR      84  70  61 S6        29.94F
COLUMBIA       FAIR      89  52  28 SW10      29.93F
6HR MIN TEMP:  72; 6HR MAX TEMP:  90;

SUMTER         MOSUNNY   88  61  40 S9        29.91F
6HR MIN TEMP:  73; 6HR MAX TEMP:  88; 6HR PCP: TRACE;

FLORENCE       CLOUDY    78  70  76 NE12      29.96F
6HR MIN TEMP:  75; 6HR MAX TEMP:  81;

MYRTLE BEACH   PTSUNNY   84  68  58 S20       30.00S
N MYRTLE BEACH FAIR      82  73  74 S15       29.97F
6HR MIN TEMP:  80; 6HR MAX TEMP:  83; 6HR PCP: TRACE;


$$

GAZ063-065-086>088-099>101-113>116-118-119-134>141-150-291900-
...SOUTHEAST GEORGIA...

CITY           SKY/WX    TMP DP  RH WIND       PRES   REMARKS
SAVANNAH ARPT  MOSUNNY   89  58  34 S6        29.97F
6HR MIN TEMP:  74; 6HR MAX TEMP:  94;

HUNTER AAF     MOSUNNY   89  74  61 SW8       29.94F HX  98
6HR MIN TEMP:  74; 6HR MAX TEMP:  89;

FORT STEWART   PTSUNNY   87  65  47 SW7       29.95F
6HR MIN TEMP:  73; 6HR MAX TEMP:  88;

STATESBORO     SUNNY     88  61  40 W8        29.96F
SYLVANIA       NOT AVBL
CLAXTON        FAIR      87  64  45 CALM      29.97F

...CSRA...CENTRAL AND FAR SOUTHEAST GEORGIA...

CITY           SKY/WX    TMP DP  RH WIND       PRES   REMARKS
THOMSON        SUNNY     90  51  26 SW8G16    29.98F
AUGUSTA-BUSH   SUNNY     88  52  29 SW8       29.93F
6HR MIN TEMP:  70; 6HR MAX TEMP:  88;

AUGUSTA-DANIEL SUNNY     88  48  25 S10G16    29.95F HAZE
SWAINSBORO     MOCLDY    86  61  42 W8        29.96F
VIDALIA        MOSUNNY   88  70  55 SW13      29.97F HX  92
EASTMAN        FAIR      90  33  13 SW9G16    29.98F
HAZLEHURST     FAIR      88  67  51 N6G17     29.96F HX  91
ALMA           MOSUNNY   87  67  51 SW8       29.97F HX  90
6HR MIN TEMP:  72; 6HR MAX TEMP:  88;

WAYCROSS       PTSUNNY   91  73  56 W5        29.97F HX  99
JESUP          MOCLDY    88  72  58 CALM      29.98F HX  94
BAXLEY         PTSUNNY   88  72  58 SW5       29.97F HX  94
BRUNSWICK      SUNNY     90  70  51 W5        29.98F HX  95
SAINT SIMONS   MOSUNNY   87  70  56 CALM      29.97F HX  92
6HR MIN TEMP:  74; 6HR MAX TEMP:  89;


$$

SCZ027-028-034-036>038-045-046-048>050-GAZ119-141-291900-
...LAKE AND SUPPLEMENTAL COASTAL OBSERVATIONS...

STATION/POSITION TIME  TEMP    WIND        PRES    WAVE   SWELL
                       AIR SEA DIR/SP/G            HT/PER HT/PER/DIR
                 (UTC) (F)     (DEG/KT/KT) (MB)    (FT/S) (FT/S/D)
WINYAH BAY       NOT AVBL
LAKE MURRAY      1720   83     150/  3/  4 1013.9
ACE BASIN NERRS  1645   85     230/  2     1016.0
FORT PULASKI     1748   85 81  190/  4/  7 1015.4F
SAPELO ISLAND    1700   89     300/  2     1016.0

$$

ANZ835-935-AMZ111-154-330-350-352-354-370-450-454-472-291900-
...C-MAN AND BUOY OBSERVATIONS...

STATION/POSITION TIME  TEMP    WIND        PRES    WAVE   SWELL
                       AIR SEA DIR/SP/G            HT/PER HT/PER/DIR
                 (UTC) (F)     (DEG/KT/KT) (MB)    (FT/S) (FT/S/D)
BUOY 41004       1750   80 82  190/ 14/ 17 1014.6F   4/ 5   2/120/10
BUOY 41008       1750   81 83  220/  6/  6 1015.3F   2/ 4   2/160/ 4
FOLLY BEACH CMAN 1800   81     200/ 11/ 14 1015.0F
CAPERS NEARSHORE 1708   80 81  210/ 10/ 14 1015.3F
FRIPP NEARSHORE  1708   84 82  230/  8/ 10 1015.5F


STATION/POSITION TIME  TEMP    WIND        PRES    WAVE   SWELL
                       AIR SEA DIR/SP/G            HT/PER HT/PER/DIR
                 (UTC) (F)     (DEG/KT/KT) (MB)    (FT/S) (FT/S/D)
5E ST. MARYS GA  1701      83                N/A     2/11   2/110/11
FRYING PAN BUOY  1750   80 82  200/ 10/ 14 1015.6F   4/ 6   2/130/11
BUOY 41025       1750   81 84  290/  2/  4 1016.7F   3/10   3/110/10
CAPE LOOKOUT NC  1800   72      20/ 11/ 13 1017.2R
BUOY 41002       1750   81 83  180/ 10/ 12 1017.4F   3/11   3/ 80/11
BUOY 41010       NOT AVBL
ST AUGUSTINE FL  1800   85 84  200/  7/  8 1016.4F


$$




USA.gov is the U.S. government's official web portal to all federal, state and local government web resources and services.